AAL497 KDFW-KMKE

Flight info

Callsign AAL497
Flight time 1h 46m
Altitude 37000
Route AKUNA9 MLC RZC KOOOP FARMR LEEDN GOPAC3
Aircraft A319/M-SDE3FGHIRWY/LB1

Departure

Time 2026-05-08 18:32
Airport Dallas Fort Worth International Airport (KDFW)

Arrival

Time 2026-05-08 20:18
Airport General Mitchell International Airport (KMKE)
Time Latitude Longitude Altitude Speed Heading
2026-05-08 18:23 32.90579 -97.03528 598 ft 0 kts 256°
2026-05-08 18:26 32.90582 -97.03513 598 ft 3 kts 256°
2026-05-08 18:26 32.90587 -97.03491 598 ft 3 kts 256°
2026-05-08 18:26 32.90592 -97.03470 598 ft 3 kts 259°
2026-05-08 18:26 32.90591 -97.03447 598 ft 3 kts 303°
2026-05-08 18:27 32.90577 -97.03432 597 ft 3 kts 347°
2026-05-08 18:27 32.90571 -97.03430 597 ft 0 kts 356°
2026-05-08 18:28 32.90572 -97.03430 597 ft 2 kts 356°
2026-05-08 18:28 32.90606 -97.03385 597 ft 16 kts 84°
2026-05-08 18:28 32.90713 -97.03310 597 ft 22 kts
2026-05-08 18:28 32.90876 -97.03311 597 ft 26 kts 359°
2026-05-08 18:29 32.91057 -97.03280 597 ft 27 kts 12°
2026-05-08 18:29 32.91248 -97.03274 597 ft 28 kts 360°
2026-05-08 18:29 32.91445 -97.03269 596 ft 26 kts 10°
2026-05-08 18:29 32.91488 -97.03118 583 ft 21 kts 94°
2026-05-08 18:30 32.91487 -97.03097 583 ft 2 kts 94°
2026-05-08 18:30 32.91486 -97.03085 582 ft 0 kts 94°
2026-05-08 18:30 32.91486 -97.03079 582 ft 4 kts 94°
2026-05-08 18:31 32.91456 -97.02994 581 ft 14 kts 154°
2026-05-08 18:31 32.91323 -97.02991 581 ft 39 kts 180°
2026-05-08 18:31 32.90739 -97.02999 583 ft 126 kts 180°
2026-05-08 18:31 32.89671 -97.03000 848 ft 168 kts 180°
2026-05-08 18:32 32.88454 -97.02990 1516 ft 183 kts 179°
2026-05-08 18:32 32.87105 -97.02940 1956 ft 204 kts 177°
2026-05-08 18:32 32.85652 -97.02558 2413 ft 227 kts 162°
2026-05-08 18:32 32.84097 -97.01930 3096 ft 242 kts 162°
2026-05-08 18:33 32.82475 -97.01261 3933 ft 252 kts 163°
2026-05-08 18:33 32.80789 -97.00563 4804 ft 261 kts 164°
2026-05-08 18:33 32.79094 -96.99771 5699 ft 271 kts 153°
2026-05-08 18:33 32.77778 -96.98128 6566 ft 285 kts 120°
2026-05-08 18:34 32.76966 -96.95966 7486 ft 289 kts 113°
2026-05-08 18:34 32.76492 -96.93619 8357 ft 297 kts 96°
2026-05-08 18:34 32.76547 -96.91097 9036 ft 312 kts 85°
2026-05-08 18:34 32.76796 -96.88507 9834 ft 319 kts 77°
2026-05-08 18:35 32.77574 -96.85994 10344 ft 336 kts 59°
2026-05-08 18:35 32.79064 -96.83766 10645 ft 355 kts 38°
2026-05-08 18:35 32.81213 -96.82195 10907 ft 371 kts 17°
2026-05-08 18:35 32.83739 -96.81460 11435 ft 378 kts
2026-05-08 18:36 32.86345 -96.80988 12176 ft 379 kts 359°
2026-05-08 18:36 32.88988 -96.80925 12954 ft 381 kts 354°
2026-05-08 18:36 32.91611 -96.80920 13732 ft 384 kts 354°
2026-05-08 18:36 32.94300 -96.80921 14430 ft 388 kts 354°
2026-05-08 18:37 32.97017 -96.80921 15122 ft 393 kts 354°
2026-05-08 18:37 32.99766 -96.80920 15815 ft 396 kts 354°
2026-05-08 18:37 33.02537 -96.80959 16509 ft 400 kts 353°
2026-05-08 18:37 33.05332 -96.81039 17199 ft 404 kts 353°
2026-05-08 18:38 33.08159 -96.81142 17907 ft 408 kts 352°
2026-05-08 18:38 33.11007 -96.81253 18563 ft 412 kts 352°
2026-05-08 18:38 33.13890 -96.81359 19161 ft 416 kts 353°
2026-05-08 18:38 33.16797 -96.81457 19730 ft 420 kts 353°
2026-05-08 18:39 33.19734 -96.81550 20284 ft 424 kts 353°
2026-05-08 18:39 33.22695 -96.81639 20834 ft 427 kts 353°
2026-05-08 18:39 33.25677 -96.81728 21372 ft 430 kts 352°
2026-05-08 18:39 33.28681 -96.81818 21898 ft 433 kts 352°
2026-05-08 18:40 33.31705 -96.81909 22416 ft 436 kts 352°
2026-05-08 18:40 33.34713 -96.82001 22917 ft 439 kts 352°
2026-05-08 18:40 33.37783 -96.82096 23420 ft 442 kts 352°
2026-05-08 18:40 33.40877 -96.82152 23847 ft 448 kts 356°
2026-05-08 18:41 33.44010 -96.81739 24254 ft 458 kts
2026-05-08 18:41 33.47121 -96.80722 24650 ft 469 kts 14°
2026-05-08 18:41 33.50123 -96.79100 25039 ft 478 kts 23°
2026-05-08 18:41 33.53067 -96.77210 25407 ft 481 kts 23°
2026-05-08 18:42 33.56028 -96.75311 25777 ft 485 kts 23°
2026-05-08 18:42 33.59013 -96.73396 26132 ft 488 kts 23°
2026-05-08 18:42 33.62019 -96.71465 26473 ft 492 kts 23°
2026-05-08 18:42 33.65004 -96.69545 26813 ft 495 kts 23°
2026-05-08 18:43 33.68050 -96.67587 27145 ft 499 kts 23°
2026-05-08 18:43 33.71114 -96.65611 27464 ft 502 kts 23°
2026-05-08 18:43 33.74205 -96.63618 27794 ft 505 kts 23°
2026-05-08 18:43 33.77310 -96.61615 28107 ft 508 kts 23°
2026-05-08 18:44 33.80427 -96.59605 28465 ft 510 kts 23°
2026-05-08 18:44 33.83565 -96.57580 28941 ft 510 kts 23°
2026-05-08 18:44 33.86692 -96.55560 29412 ft 510 kts 23°
2026-05-08 18:44 33.89816 -96.53538 29877 ft 510 kts 23°
2026-05-08 18:45 33.92941 -96.51511 30289 ft 510 kts 23°
2026-05-08 18:45 33.96074 -96.49478 30681 ft 511 kts 23°
2026-05-08 18:45 33.99203 -96.47446 31064 ft 511 kts 22°
2026-05-08 18:45 34.02332 -96.45414 31450 ft 512 kts 22°
2026-05-08 18:46 34.05470 -96.43377 31836 ft 512 kts 22°
2026-05-08 18:46 34.08521 -96.41108 32230 ft 517 kts 28°
2026-05-08 18:46 34.11506 -96.38680 32611 ft 518 kts 28°
2026-05-08 18:46 34.14498 -96.36244 33004 ft 519 kts 28°
2026-05-08 18:47 34.17490 -96.33807 33396 ft 519 kts 28°
2026-05-08 18:47 34.20444 -96.31396 33794 ft 520 kts 28°
2026-05-08 18:47 34.23484 -96.28912 34165 ft 520 kts 28°
2026-05-08 18:47 34.26445 -96.26492 34510 ft 521 kts 28°
2026-05-08 18:48 34.29441 -96.24038 34886 ft 521 kts 28°
2026-05-08 18:48 34.32441 -96.21578 35259 ft 520 kts 28°
2026-05-08 18:48 34.35443 -96.19118 35621 ft 520 kts 28°
2026-05-08 18:48 34.38441 -96.16661 35970 ft 520 kts 28°
2026-05-08 18:49 34.41434 -96.14204 36313 ft 520 kts 28°
2026-05-08 18:49 34.44424 -96.11742 36643 ft 520 kts 28°
2026-05-08 18:49 34.47412 -96.09275 36905 ft 520 kts 28°
2026-05-08 18:49 34.50417 -96.06799 36967 ft 523 kts 28°
2026-05-08 18:50 34.56457 -96.01833 36968 ft 525 kts 28°
2026-05-08 18:50 34.62457 -95.96885 36965 ft 525 kts 28°
2026-05-08 18:51 34.68499 -95.91890 36964 ft 525 kts 28°
2026-05-08 18:51 34.74547 -95.86878 36964 ft 525 kts 28°
2026-05-08 18:52 34.80585 -95.81861 36966 ft 525 kts 28°
2026-05-08 18:52 34.86448 -95.76504 36968 ft 533 kts 38°
2026-05-08 18:53 34.91825 -95.70258 36965 ft 534 kts 39°
2026-05-08 18:53 34.97196 -95.64008 36964 ft 534 kts 39°
2026-05-08 18:54 35.02552 -95.57775 36967 ft 535 kts 39°
2026-05-08 18:54 35.07929 -95.51502 36966 ft 535 kts 39°
2026-05-08 18:55 35.15994 -95.42056 36966 ft 536 kts 39°
2026-05-08 18:56 35.21374 -95.35743 36960 ft 536 kts 39°
2026-05-08 18:56 35.26756 -95.29420 36953 ft 536 kts 39°
2026-05-08 18:57 35.32144 -95.23079 36945 ft 537 kts 39°
2026-05-08 18:57 35.37495 -95.16774 36945 ft 537 kts 39°
2026-05-08 18:58 35.42877 -95.10400 36954 ft 538 kts 39°
2026-05-08 18:58 35.48250 -95.04021 36956 ft 538 kts 39°
2026-05-08 18:59 35.53606 -94.97673 36968 ft 538 kts 39°
2026-05-08 18:59 35.58992 -94.91284 36972 ft 538 kts 39°
2026-05-08 19:00 35.63460 -94.85951 36974 ft 538 kts 39°
2026-05-08 19:00 35.68828 -94.79532 36976 ft 538 kts 39°
2026-05-08 19:01 35.74197 -94.73112 36990 ft 538 kts 39°
2026-05-08 19:01 35.79566 -94.66678 36999 ft 538 kts 39°
2026-05-08 19:02 35.84940 -94.60237 37004 ft 539 kts 39°
2026-05-08 19:02 35.90307 -94.53776 36998 ft 539 kts 39°
2026-05-08 19:03 35.95662 -94.47310 36988 ft 539 kts 39°
2026-05-08 19:03 36.01015 -94.40838 36979 ft 539 kts 39°
2026-05-08 19:04 36.06335 -94.34406 36967 ft 538 kts 39°
2026-05-08 19:04 36.11687 -94.27926 36979 ft 538 kts 39°
2026-05-08 19:05 36.17032 -94.21430 36972 ft 538 kts 39°
2026-05-08 19:05 36.22362 -94.14927 36967 ft 538 kts 39°
2026-05-08 19:06 36.28017 -94.08990 36966 ft 530 kts 30°
2026-05-08 19:06 36.33915 -94.03502 36966 ft 530 kts 30°
2026-05-08 19:07 36.39776 -93.98015 36974 ft 531 kts 30°
2026-05-08 19:07 36.45663 -93.92479 36977 ft 531 kts 30°
2026-05-08 19:08 36.51547 -93.86936 36979 ft 531 kts 30°
2026-05-08 19:08 36.57434 -93.81392 36976 ft 530 kts 30°
2026-05-08 19:09 36.63313 -93.75854 36973 ft 530 kts 30°
2026-05-08 19:09 36.69190 -93.70293 36965 ft 530 kts 31°
2026-05-08 19:10 36.75055 -93.64733 36966 ft 529 kts 30°
2026-05-08 19:10 36.80886 -93.59201 36963 ft 529 kts 31°
2026-05-08 19:11 36.86746 -93.53627 36963 ft 529 kts 31°
2026-05-08 19:11 36.92593 -93.48055 36961 ft 529 kts 31°
2026-05-08 19:12 36.98440 -93.42471 36956 ft 528 kts 31°
2026-05-08 19:12 37.04281 -93.36881 36952 ft 528 kts 31°
2026-05-08 19:13 37.10076 -93.31311 36953 ft 528 kts 31°
2026-05-08 19:13 37.15902 -93.25707 36953 ft 528 kts 31°
2026-05-08 19:14 37.21728 -93.20101 36954 ft 527 kts 31°
2026-05-08 19:14 37.27546 -93.14500 36958 ft 527 kts 31°
2026-05-08 19:15 37.33355 -93.08887 36961 ft 526 kts 31°
2026-05-08 19:15 37.39160 -93.03264 36959 ft 526 kts 31°
2026-05-08 19:16 37.44963 -92.97638 36966 ft 526 kts 31°
2026-05-08 19:16 37.50724 -92.92033 36969 ft 527 kts 31°
2026-05-08 19:17 37.56518 -92.86386 36969 ft 526 kts 31°
2026-05-08 19:17 37.62311 -92.80722 36969 ft 526 kts 31°
2026-05-08 19:18 37.68105 -92.75053 36972 ft 526 kts 31°
2026-05-08 19:18 37.73892 -92.69387 36973 ft 526 kts 31°
2026-05-08 19:19 37.79677 -92.63710 36967 ft 526 kts 31°
2026-05-08 19:19 37.85428 -92.58054 36944 ft 526 kts 31°
2026-05-08 19:20 37.91199 -92.52353 36940 ft 526 kts 31°
2026-05-08 19:20 37.96972 -92.46635 36948 ft 526 kts 31°
2026-05-08 19:21 38.02749 -92.40923 36954 ft 526 kts 31°
2026-05-08 19:21 38.08510 -92.35212 36951 ft 526 kts 31°
2026-05-08 19:22 38.14234 -92.29523 36952 ft 526 kts 31°
2026-05-08 19:22 38.19989 -92.23792 36952 ft 525 kts 31°
2026-05-08 19:23 38.25738 -92.18044 36945 ft 525 kts 32°
2026-05-08 19:23 38.31485 -92.12280 36944 ft 526 kts 31°
2026-05-08 19:24 38.37236 -92.06534 36946 ft 525 kts 31°
2026-05-08 19:24 38.42983 -92.00768 36948 ft 525 kts 32°
2026-05-08 19:25 38.48685 -91.95015 36951 ft 526 kts 32°
2026-05-08 19:25 38.54420 -91.89223 36947 ft 526 kts 32°
2026-05-08 19:26 38.60151 -91.83434 36938 ft 525 kts 32°
2026-05-08 19:26 38.65884 -91.77629 36921 ft 526 kts 32°
2026-05-08 19:27 38.71343 -91.71320 36915 ft 534 kts 42°
2026-05-08 19:27 38.76387 -91.64347 36924 ft 534 kts 42°
2026-05-08 19:28 38.81444 -91.57363 36923 ft 534 kts 41°
2026-05-08 19:28 38.86493 -91.50373 36917 ft 534 kts 41°
2026-05-08 19:29 38.91549 -91.43359 36923 ft 534 kts 42°
2026-05-08 19:29 38.96591 -91.36339 36920 ft 535 kts 42°
2026-05-08 19:30 39.01600 -91.29355 36922 ft 535 kts 42°
2026-05-08 19:30 39.06639 -91.22315 36925 ft 535 kts 42°
2026-05-08 19:31 39.11671 -91.15257 36925 ft 534 kts 42°
2026-05-08 19:31 39.16694 -91.08206 36928 ft 534 kts 42°
2026-05-08 19:32 39.21716 -91.01146 36929 ft 533 kts 42°
2026-05-08 19:32 39.26726 -90.94084 36926 ft 534 kts 42°
2026-05-08 19:33 39.31725 -90.87005 36918 ft 532 kts 42°
2026-05-08 19:33 39.36718 -90.79927 36927 ft 532 kts 42°
2026-05-08 19:34 39.41805 -90.73132 36935 ft 524 kts 33°
2026-05-08 19:34 39.47513 -90.67344 36945 ft 521 kts 30°
2026-05-08 19:35 39.53229 -90.61582 36947 ft 520 kts 31°
2026-05-08 19:35 39.58931 -90.55808 36944 ft 520 kts 31°
2026-05-08 19:36 39.64627 -90.50026 36940 ft 520 kts 31°
2026-05-08 19:36 39.70328 -90.44239 36931 ft 520 kts 31°
2026-05-08 19:37 39.76017 -90.38452 36933 ft 519 kts 31°
2026-05-08 19:37 39.81699 -90.32652 36935 ft 519 kts 31°
2026-05-08 19:38 39.87377 -90.26854 36936 ft 518 kts 31°
2026-05-08 19:38 39.93047 -90.21044 36932 ft 518 kts 31°
2026-05-08 19:39 39.98663 -90.15263 36924 ft 517 kts 31°
2026-05-08 19:39 40.04303 -90.09460 36923 ft 516 kts 31°
2026-05-08 19:40 40.09946 -90.03653 36917 ft 516 kts 31°
2026-05-08 19:40 40.15571 -89.97840 36927 ft 515 kts 31°
2026-05-08 19:41 40.21187 -89.92020 36920 ft 515 kts 31°
2026-05-08 19:41 40.26794 -89.86202 36921 ft 514 kts 31°
2026-05-08 19:42 40.32395 -89.80380 36917 ft 514 kts 31°
2026-05-08 19:42 40.37956 -89.74586 36921 ft 513 kts 31°
2026-05-08 19:43 40.43545 -89.68747 36918 ft 513 kts 31°
2026-05-08 19:43 40.49135 -89.62896 36924 ft 513 kts 31°
2026-05-08 19:44 40.54719 -89.57036 36915 ft 513 kts 31°
2026-05-08 19:44 40.60296 -89.51161 36913 ft 513 kts 31°
2026-05-08 19:45 40.65862 -89.45285 36913 ft 513 kts 31°
2026-05-08 19:45 40.71399 -89.39442 36914 ft 513 kts 31°
2026-05-08 19:46 40.76985 -89.33546 36917 ft 514 kts 32°
2026-05-08 19:46 40.85327 -89.24686 36904 ft 513 kts 32°
2026-05-08 19:47 40.90883 -89.18764 36897 ft 513 kts 32°
2026-05-08 19:47 40.96445 -89.12839 36884 ft 513 kts 32°
2026-05-08 19:48 41.02003 -89.06894 36887 ft 513 kts 32°
2026-05-08 19:48 41.07555 -89.00941 36890 ft 513 kts 32°
2026-05-08 19:49 41.13097 -88.94981 36890 ft 513 kts 32°
2026-05-08 19:49 41.18609 -88.89050 36893 ft 513 kts 32°
2026-05-08 19:50 41.24147 -88.83080 36896 ft 512 kts 32°
2026-05-08 19:50 41.29673 -88.77120 36895 ft 511 kts 32°
2026-05-08 19:51 41.35191 -88.71135 36888 ft 511 kts 32°
2026-05-08 19:51 41.40697 -88.65144 36893 ft 510 kts 32°
2026-05-08 19:52 41.45256 -88.60176 36900 ft 508 kts 32°
2026-05-08 19:52 41.50720 -88.54223 36902 ft 507 kts 32°
2026-05-08 19:53 41.56170 -88.48269 36901 ft 505 kts 32°
2026-05-08 19:53 41.62484 -88.41361 36902 ft 504 kts 32°
2026-05-08 19:54 41.67063 -88.36487 36895 ft 497 kts 26°
2026-05-08 19:54 41.70039 -88.34231 36332 ft 486 kts 14°
2026-05-08 19:54 41.73189 -88.32791 35589 ft 470 kts
2026-05-08 19:55 41.76354 -88.32118 34633 ft 453 kts 352°
2026-05-08 19:55 41.79439 -88.32121 33602 ft 439 kts 345°
2026-05-08 19:55 41.82489 -88.32326 32293 ft 439 kts 345°
2026-05-08 19:55 41.85552 -88.32530 30951 ft 441 kts 346°
2026-05-08 19:56 41.88591 -88.32730 29494 ft 445 kts 346°
2026-05-08 19:56 41.91689 -88.32930 27798 ft 448 kts 347°
2026-05-08 19:56 41.94815 -88.33127 26137 ft 451 kts 348°
2026-05-08 19:56 41.97940 -88.33316 24776 ft 447 kts 348°
2026-05-08 19:57 42.01026 -88.33499 23560 ft 441 kts 349°
2026-05-08 19:57 42.04097 -88.33683 22585 ft 439 kts 349°
2026-05-08 19:57 42.07133 -88.33865 21789 ft 433 kts 349°
2026-05-08 19:57 42.10124 -88.34052 21036 ft 428 kts 350°
2026-05-08 19:58 42.13078 -88.34240 20291 ft 423 kts 350°
2026-05-08 19:58 42.16002 -88.34427 19587 ft 418 kts 350°
2026-05-08 19:58 42.18893 -88.34612 18907 ft 413 kts 351°
2026-05-08 19:58 42.21752 -88.34794 18258 ft 409 kts 351°
2026-05-08 19:59 42.24577 -88.34978 17542 ft 404 kts 351°
2026-05-08 19:59 42.27368 -88.35220 16872 ft 399 kts 349°
2026-05-08 19:59 42.30116 -88.35535 16249 ft 394 kts 349°
2026-05-08 19:59 42.32833 -88.35889 15716 ft 389 kts 348°
2026-05-08 20:00 42.35508 -88.36244 15347 ft 385 kts 348°
2026-05-08 20:00 42.38163 -88.36628 14997 ft 382 kts 347°
2026-05-08 20:00 42.40791 -88.37073 14644 ft 379 kts 347°
2026-05-08 20:00 42.43402 -88.37549 14327 ft 377 kts 347°
2026-05-08 20:01 42.45963 -88.38026 14093 ft 377 kts 347°
2026-05-08 20:01 42.48556 -88.38504 13974 ft 375 kts 347°
2026-05-08 20:01 42.51122 -88.38964 13988 ft 364 kts 347°
2026-05-08 20:01 42.53566 -88.39383 13999 ft 344 kts 347°
2026-05-08 20:02 42.55883 -88.39771 13994 ft 326 kts 347°
2026-05-08 20:02 42.58081 -88.40142 13994 ft 310 kts 346°
2026-05-08 20:02 42.60179 -88.40504 13989 ft 298 kts 346°
2026-05-08 20:02 42.62221 -88.40865 13944 ft 294 kts 346°
2026-05-08 20:03 42.64251 -88.41232 13527 ft 295 kts 346°
2026-05-08 20:03 42.66288 -88.41600 13114 ft 295 kts 346°
2026-05-08 20:03 42.68322 -88.41965 12739 ft 295 kts 347°
2026-05-08 20:03 42.70344 -88.42379 12345 ft 293 kts 345°
2026-05-08 20:04 42.72348 -88.42849 11965 ft 292 kts 345°
2026-05-08 20:04 42.74382 -88.43076 11620 ft 296 kts 358°
2026-05-08 20:04 42.76366 -88.42727 11330 ft 295 kts
2026-05-08 20:04 42.78389 -88.42262 11039 ft 295 kts
2026-05-08 20:05 42.80293 -88.41194 10751 ft 299 kts 30°
2026-05-08 20:05 42.81847 -88.39320 10466 ft 301 kts 50°
2026-05-08 20:05 42.82870 -88.36882 10183 ft 301 kts 68°
2026-05-08 20:05 42.83556 -88.34205 9989 ft 299 kts 70°
2026-05-08 20:06 42.84230 -88.31530 9981 ft 299 kts 71°
2026-05-08 20:06 42.84906 -88.28844 9983 ft 299 kts 70°
2026-05-08 20:06 42.85578 -88.26155 9981 ft 300 kts 70°
2026-05-08 20:06 42.86251 -88.23464 9987 ft 300 kts 70°
2026-05-08 20:07 42.86924 -88.20773 9985 ft 300 kts 70°
2026-05-08 20:07 42.87595 -88.18081 9992 ft 300 kts 70°
2026-05-08 20:07 42.88264 -88.15390 9990 ft 300 kts 70°
2026-05-08 20:07 42.88934 -88.12691 9987 ft 300 kts 70°
2026-05-08 20:08 42.89604 -88.09991 9975 ft 301 kts 71°
2026-05-08 20:08 42.90274 -88.07290 9979 ft 301 kts 70°
2026-05-08 20:08 42.90946 -88.04583 9974 ft 301 kts 70°
2026-05-08 20:08 42.91618 -88.01883 9973 ft 301 kts 70°
2026-05-08 20:09 42.92301 -87.99178 9969 ft 301 kts 68°
2026-05-08 20:09 42.93403 -87.96799 9770 ft 296 kts 43°
2026-05-08 20:09 42.95081 -87.95339 9411 ft 289 kts 16°
2026-05-08 20:09 42.97038 -87.94989 8998 ft 283 kts 354°
2026-05-08 20:10 42.98973 -87.95366 8593 ft 280 kts 346°
2026-05-08 20:10 43.00877 -87.95861 8002 ft 277 kts 346°
2026-05-08 20:10 43.02766 -87.96361 7406 ft 275 kts 346°
2026-05-08 20:10 43.04638 -87.96859 6857 ft 273 kts 346°
2026-05-08 20:11 43.06497 -87.97350 6272 ft 271 kts 346°
2026-05-08 20:11 43.08339 -87.97841 5667 ft 269 kts 346°
2026-05-08 20:11 43.10186 -87.98241 5057 ft 268 kts 353°
2026-05-08 20:11 43.12066 -87.98264 4620 ft 270 kts
2026-05-08 20:12 43.13937 -87.98084 4254 ft 269 kts
2026-05-08 20:12 43.15773 -87.97871 3893 ft 268 kts
2026-05-08 20:12 43.17453 -87.96922 3753 ft 260 kts 37°
2026-05-08 20:12 43.18548 -87.95006 3622 ft 255 kts 68°
2026-05-08 20:13 43.18823 -87.92680 3482 ft 246 kts 92°
2026-05-08 20:13 43.18736 -87.90365 3237 ft 242 kts 99°
2026-05-08 20:13 43.18167 -87.88243 3032 ft 234 kts 127°
2026-05-08 20:13 43.17034 -87.86760 2983 ft 223 kts 153°
2026-05-08 20:14 43.15608 -87.86067 2989 ft 215 kts 176°
2026-05-08 20:14 43.14134 -87.86147 2993 ft 212 kts 190°
2026-05-08 20:14 43.12663 -87.86403 2992 ft 212 kts 189°
2026-05-08 20:14 43.11194 -87.86657 2989 ft 213 kts 189°
2026-05-08 20:15 43.09722 -87.86910 2993 ft 213 kts 189°
2026-05-08 20:15 43.08290 -87.87155 2988 ft 201 kts 189°
2026-05-08 20:15 43.06915 -87.87391 2922 ft 202 kts 189°
2026-05-08 20:15 43.05483 -87.87638 2670 ft 211 kts 189°
2026-05-08 20:16 43.04064 -87.87881 2404 ft 200 kts 188°
2026-05-08 20:16 43.02711 -87.88112 2152 ft 192 kts 188°
2026-05-08 20:16 43.01412 -87.88334 1910 ft 183 kts 188°
2026-05-08 20:16 43.00201 -87.88541 1659 ft 173 kts 187°
2026-05-08 20:17 42.99053 -87.88739 1426 ft 160 kts 184°
2026-05-08 20:17 42.97999 -87.88919 1203 ft 148 kts 183°
2026-05-08 20:17 42.96987 -87.89091 1012 ft 145 kts 182°
2026-05-08 20:17 42.95997 -87.89261 826 ft 142 kts 181°
2026-05-08 20:18 42.95033 -87.89431 690 ft 130 kts 181°
2026-05-08 20:18 42.94343 -87.89542 686 ft 51 kts 188°
2026-05-08 20:18 42.94075 -87.89662 686 ft 38 kts 224°
2026-05-08 20:18 42.94052 -87.89844 685 ft 0 kts 311°